| time (UTC) | temp C | wind direction | speed KPH | gust KPH | rain 1hr cm | rain 24hr cm | rain mn cm | humidity % | barometer mb |
| 20260506124533 | 7 | 335 | 1.6 | 9.7 | 0.00 | 3.51 | 0.71 | 91 | 1008.7 |
| 20260506124033 | 7 | 303 | 4.8 | 9.7 | 0.00 | 3.51 | 0.71 | 91 | 1008.7 |
| 20260506123533 | 7 | 331 | 1.6 | 9.7 | 0.00 | 3.51 | 0.71 | 91 | 1008.9 |
| 20260506123034 | 7 | 281 | 3.2 | 9.7 | 0.00 | 3.51 | 0.71 | 91 | 1009.0 |
| 20260506122533 | 6 | 322 | 1.6 | 6.4 | 0.00 | 3.51 | 0.71 | 91 | 1008.8 |
| 20260506122031 | 6 | 339 | 1.6 | 8.0 | 0.00 | 3.51 | 0.71 | 91 | 1008.8 |
| 20260506121531 | 6 | 317 | 3.2 | 8.0 | 0.00 | 3.51 | 0.71 | 91 | 1009.0 |
| 20260506121030 | 6 | 41 | 1.6 | 3.2 | 0.00 | 3.51 | 0.71 | 91 | 1009.0 |
| 20260506120529 | 6 | 41 | 0.0 | 4.8 | 0.00 | 3.51 | 0.71 | 91 | 1008.7 |
| 20260506120039 | 6 | 356 | 1.6 | 4.8 | 0.00 | 3.51 | 0.71 | 91 | 1008.6 |
| 20260506115528 | 6 | 316 | 1.6 | 4.8 | 0.00 | 3.51 | 0.71 | 91 | 1008.7 |
| 20260506115026 | 6 | 319 | 1.6 | 4.8 | 0.00 | 3.51 | 0.71 | 91 | 1008.7 |
| 20260506114526 | 6 | 147 | 0.0 | 6.4 | 0.00 | 3.51 | 0.71 | 91 | 1008.6 |
| 20260506114025 | 6 | 41 | 0.0 | 6.4 | 0.00 | 3.51 | 0.71 | 90 | 1008.5 |
| 20260506113524 | 6 | 147 | 0.0 | 3.2 | 0.00 | 3.51 | 0.71 | 90 | 1008.4 |
| 20260506113029 | 6 | 319 | 1.6 | 3.2 | 0.00 | 3.51 | 0.71 | 90 | 1008.3 |
| 20260506112522 | 6 | 342 | 1.6 | 4.8 | 0.00 | 3.51 | 0.71 | 90 | 1008.2 |
| 20260506112022 | 6 | 41 | 1.6 | 4.8 | 0.00 | 3.51 | 0.71 | 90 | 1008.2 |
| 20260506111521 | 6 | 356 | 1.6 | 6.4 | 0.00 | 3.51 | 0.71 | 90 | 1008.2 |
| 20260506111020 | 6 | 326 | 3.2 | 6.4 | 0.00 | 3.51 | 0.71 | 90 | 1007.9 |
| 20260506110519 | 6 | 326 | 1.6 | 8.0 | 0.00 | 3.51 | 0.71 | 90 | 1007.7 |
| 20260506110019 | 6 | 335 | 3.2 | 8.0 | 0.00 | 3.51 | 0.71 | 90 | 1007.9 |
| 20260506105617 | 6 | 319 | 4.8 | 11.3 | 0.00 | 3.51 | 0.71 | 90 | 1007.6 |
| 20260506105018 | 6 | 23 | 4.8 | 11.3 | 0.00 | 3.51 | 0.71 | 90 | 1007.5 |
| 20260506104517 | 6 | 84 | 1.6 | 11.3 | 0.00 | 3.51 | 0.71 | 90 | 1007.4 |
| 20260506104017 | 6 | 20 | 4.8 | 11.3 | 0.00 | 3.51 | 0.71 | 90 | 1007.6 |
| 20260506103518 | 6 | 340 | 4.8 | 14.5 | 0.00 | 3.51 | 0.71 | 90 | 1007.9 |
| 20260506103017 | 6 | 324 | 3.2 | 14.5 | 0.00 | 3.51 | 0.71 | 90 | 1007.7 |
| 20260506102516 | 6 | 329 | 4.8 | 11.3 | 0.03 | 3.51 | 0.71 | 90 | 1007.6 |
| 20260506102016 | 6 | 311 | 6.4 | 12.9 | 0.03 | 3.51 | 0.71 | 90 | 1007.5 |
| 20260506101516 | 6 | 324 | 4.8 | 12.9 | 0.05 | 3.51 | 0.71 | 90 | 1007.1 |
| 20260506101017 | 6 | 344 | 4.8 | 8.0 | 0.05 | 3.51 | 0.71 | 90 | 1006.8 |
| 20260506100514 | 6 | 333 | 3.2 | 6.4 | 0.08 | 3.51 | 0.71 | 90 | 1006.9 |
| 20260506100013 | 6 | 23 | 1.6 | 6.4 | 0.08 | 3.51 | 0.71 | 90 | 1006.5 |
| 20260506095512 | 6 | 23 | 3.2 | 6.4 | 0.08 | 3.51 | 0.71 | 90 | 1006.8 |
| 20260506095011 | 6 | 34 | 1.6 | 9.7 | 0.08 | 3.51 | 0.71 | 90 | 1006.9 |
| 20260506094512 | 6 | 6 | 3.2 | 14.5 | 0.10 | 3.51 | 0.71 | 90 | 1007.2 |
| 20260506094011 | 6 | 337 | 6.4 | 14.5 | 0.10 | 3.51 | 0.71 | 90 | 1007.4 |
| 20260506093510 | 6 | 3 | 6.4 | 17.7 | 0.10 | 3.51 | 0.71 | 90 | 1007.7 |
| 20260506093010 | 6 | 339 | 3.2 | 17.7 | 0.10 | 3.51 | 0.71 | 90 | 1007.8 |
| 20260506092509 | 6 | 328 | 4.8 | 12.9 | 0.10 | 3.48 | 0.69 | 90 | 1007.9 |
| 20260506092009 | 6 | 345 | 6.4 | 12.9 | 0.10 | 3.48 | 0.69 | 90 | 1007.8 |
| 20260506091514 | 6 | 325 | 4.8 | 12.9 | 0.10 | 3.45 | 0.66 | 90 | 1007.7 |
| 20260506091007 | 7 | 333 | 6.4 | 14.5 | 0.13 | 3.45 | 0.66 | 90 | 1007.5 |
| 20260506090505 | 7 | 326 | 6.4 | 20.9 | 0.13 | 3.43 | 0.64 | 90 | 1007.4 |
| 20260506090010 | 7 | 329 | 8.0 | 20.9 | 0.15 | 3.43 | 0.64 | 90 | 1007.2 |
| 20260506085508 | 7 | 315 | 8.0 | 16.1 | 0.15 | 3.43 | 0.64 | 90 | 1007.3 |
| 20260506085003 | 7 | 321 | 3.2 | 11.3 | 0.20 | 3.43 | 0.64 | 90 | 1007.1 |
| 20260506084503 | 7 | 322 | 6.4 | 11.3 | 0.18 | 3.40 | 0.61 | 90 | 1007.0 |
| 20260506084003 | 7 | 15 | 3.2 | 14.5 | 0.18 | 3.40 | 0.61 | 90 | 1006.9 |
| 20260506083503 | 7 | 27 | 6.4 | 14.5 | 0.18 | 3.40 | 0.61 | 90 | 1006.9 |
| 20260506083001 | 7 | 339 | 4.8 | 9.7 | 0.20 | 3.40 | 0.61 | 90 | 1007.0 |
| 20260506082502 | 7 | 34 | 6.4 | 12.9 | 0.20 | 3.38 | 0.58 | 90 | 1007.0 |
| 20260506082001 | 7 | 326 | 6.4 | 12.9 | 0.20 | 3.38 | 0.58 | 90 | 1007.2 |
| 20260506081500 | 7 | 344 | 6.4 | 12.9 | 0.20 | 3.35 | 0.56 | 90 | 1007.3 |
| 20260506081100 | 7 | 8 | 4.8 | 12.9 | 0.20 | 3.33 | 0.53 | 90 | 1007.4 |
| 20260506080600 | 7 | 15 | 4.8 | 9.7 | 0.18 | 3.30 | 0.51 | 90 | 1007.4 |
| 20260506073158 | 7 | 295 | 4.8 | 14.5 | 0.10 | 3.20 | 0.41 | 90 | 1007.1 |
| 20260506072555 | 7 | 356 | 6.4 | 14.5 | 0.08 | 3.17 | 0.38 | 90 | 1007.0 |
| 20260506072055 | 7 | 6 | 6.4 | 14.5 | 0.08 | 3.17 | 0.38 | 90 | 1007.0 |
| 20260506071555 | 7 | 290 | 6.4 | 11.3 | 0.08 | 3.15 | 0.36 | 90 | 1007.0 |
| 20260506071054 | 7 | 349 | 6.4 | 11.3 | 0.05 | 3.12 | 0.33 | 90 | 1006.9 |
| 20260506070553 | 7 | 3 | 3.2 | 9.7 | 0.05 | 3.12 | 0.33 | 90 | 1006.9 |
| 20260506062049 | 7 | 333 | 3.2 | 11.3 | 0.13 | 3.10 | 0.30 | 90 | 1007.2 |
| 20260506061557 | 7 | 348 | 3.2 | 9.7 | 0.10 | 3.07 | 0.28 | 90 | 1007.0 |
| 20260506061047 | 7 | 350 | 4.8 | 9.7 | 0.13 | 3.07 | 0.28 | 90 | 1007.0 |
| 20260506060546 | 7 | 356 | 3.2 | 8.0 | 0.15 | 3.07 | 0.28 | 90 | 1007.1 |
| 20260506051043 | 7 | 84 | 3.2 | 8.0 | 0.13 | 2.92 | 0.15 | 90 | 1007.2 |
| 20260506050538 | 7 | 356 | 3.2 | 6.4 | 0.10 | 2.90 | 0.13 | 90 | 1007.5 |
| 20260506045036 | 7 | 32 | 6.4 | 11.3 | 0.10 | 2.84 | 0.08 | 89 | 1007.5 |
| 20260506044544 | 7 | 356 | 6.4 | 12.9 | 0.10 | 2.84 | 0.08 | 90 | 1007.6 |
| 20260506044033 | 7 | 8 | 4.8 | 14.5 | 0.13 | 2.84 | 0.08 | 90 | 1007.6 |
| 20260506043532 | 7 | 6 | 6.4 | 16.1 | 0.15 | 2.84 | 0.08 | 89 | 1007.6 |
| 20260506043039 | 7 | 345 | 4.8 | 16.1 | 0.15 | 2.84 | 0.05 | 90 | 1007.7 |
| 20260506042531 | 7 | 356 | 6.4 | 14.5 | 0.18 | 2.84 | 0.05 | 90 | 1007.7 |
| 20260506042031 | 7 | 8 | 8.0 | 14.5 | 0.18 | 2.82 | 0.03 | 90 | 1007.8 |
| 20260506041534 | 7 | 346 | 6.4 | 12.9 | 0.18 | 2.82 | 0.03 | 90 | 1007.8 |
| 20260506041029 | 8 | 311 | 6.4 | 14.5 | 0.20 | 2.82 | 0.03 | 90 | 1007.8 |
| 20260506040527 | 8 | 356 | 6.4 | 14.5 | 0.23 | 2.82 | 0.03 | 89 | 1007.8 |
| 20260506040026 | 8 | 321 | 4.8 | 14.5 | 0.23 | 2.79 | 0.00 | 89 | 1007.9 |
| 20260506035527 | 8 | 13 | 6.4 | 17.7 | 0.23 | 2.77 | 2.77 | 90 | 1008.0 |
| 20260506035026 | 8 | 339 | 6.4 | 17.7 | 0.25 | 2.77 | 2.77 | 90 | 1008.1 |
| 20260506034527 | 8 | 335 | 3.2 | 11.3 | 0.30 | 2.77 | 2.77 | 90 | 1008.1 |
| 20260506034124 | 8 | 318 | 4.8 | 8.0 | 0.30 | 2.74 | 2.74 | 89 | 1008.1 |
| 20260506033523 | 8 | 309 | 3.2 | 11.3 | 0.33 | 2.72 | 2.72 | 89 | 1008.1 |
| 20260506033022 | 8 | 301 | 4.8 | 11.3 | 0.33 | 2.69 | 2.69 | 89 | 1008.1 |
| 20260506032522 | 8 | 318 | 4.8 | 11.3 | 0.33 | 2.67 | 2.67 | 89 | 1008.1 |
| 20260506032021 | 8 | 13 | 6.4 | 11.3 | 0.33 | 2.64 | 2.64 | 90 | 1008.1 |
| 20260506031521 | 8 | 23 | 3.2 | 8.0 | 0.38 | 2.64 | 2.64 | 90 | 1008.2 |
| 20260506031021 | 8 | 301 | 3.2 | 9.7 | 0.36 | 2.62 | 2.62 | 90 | 1008.3 |
| 20260506030521 | 8 | 41 | 3.2 | 11.3 | 0.38 | 2.59 | 2.59 | 89 | 1008.3 |
| 20260506030022 | 8 | 1 | 3.2 | 9.7 | 0.36 | 2.57 | 2.57 | 89 | 1008.2 |
| 20260506025521 | 8 | 326 | 4.8 | 9.7 | 0.38 | 2.54 | 2.54 | 89 | 1008.2 |
| 20260506025019 | 8 | 330 | 4.8 | 11.3 | 0.38 | 2.51 | 2.51 | 89 | 1008.3 |
| 20260506024536 | 8 | 4 | 4.8 | 11.3 | 0.36 | 2.46 | 2.46 | 89 | 1008.1 |
| 20260506024118 | 8 | 309 | 1.6 | 11.3 | 0.36 | 2.44 | 2.44 | 89 | 1008.0 |
| 20260506023520 | 8 | 15 | 6.4 | 11.3 | 0.33 | 2.39 | 2.39 | 89 | 1007.7 |
| 20260506023016 | 8 | 335 | 3.2 | 8.0 | 0.36 | 2.36 | 2.36 | 89 | 1007.7 |
| 20260506022518 | 8 | 37 | 3.2 | 8.0 | 0.33 | 2.34 | 2.34 | 89 | 1007.8 |
| 20260506022015 | 8 | 326 | 3.2 | 11.3 | 0.30 | 2.31 | 2.31 | 89 | 1007.7 |
| 20260506021515 | 8 | 339 | 4.8 | 11.3 | 0.25 | 2.26 | 2.26 | 89 | 1007.6 |
| 20260506021017 | 8 | 321 | 3.2 | 9.7 | 0.23 | 2.24 | 2.24 | 89 | 1007.6 |
| 20260506020514 | 8 | 1 | 4.8 | 11.3 | 0.23 | 2.21 | 2.21 | 89 | 1007.5 |
| 20260506020014 | 8 | 6 | 4.8 | 11.3 | 0.23 | 2.21 | 2.21 | 89 | 1007.4 |
| 20260506015515 | 8 | 23 | 4.8 | 9.7 | 0.18 | 2.16 | 2.16 | 89 | 1007.4 |
| 20260506015016 | 8 | 4 | 4.8 | 8.0 | 0.18 | 2.13 | 2.13 | 89 | 1007.5 |
| 20260506014514 | 8 | 356 | 3.2 | 9.7 | 0.18 | 2.11 | 2.11 | 89 | 1007.6 |
| 20260506014017 | 8 | 335 | 3.2 | 9.7 | 0.18 | 2.08 | 2.08 | 89 | 1007.6 |
| 20260506013514 | 8 | 27 | 3.2 | 8.0 | 0.23 | 2.06 | 2.06 | 89 | 1007.6 |
| 20260506013015 | 8 | 3 | 4.8 | 8.0 | 0.20 | 2.01 | 2.01 | 89 | 1007.5 |
| 20260506012514 | 8 | 356 | 3.2 | 8.0 | 0.25 | 2.01 | 2.01 | 89 | 1007.4 |
| 20260506012016 | 8 | 4 | 3.2 | 8.0 | 0.25 | 2.01 | 2.01 | 89 | 1007.5 |
| 20260506011513 | 8 | 41 | 1.6 | 6.4 | 0.28 | 2.01 | 2.01 | 89 | 1007.3 |
| 20260506011015 | 8 | 15 | 3.2 | 12.9 | 0.28 | 2.01 | 2.01 | 89 | 1007.3 |
| 20260506010512 | 8 | 326 | 3.2 | 12.9 | 0.25 | 1.98 | 1.98 | 89 | 1007.2 |
| 20260506010012 | 8 | 356 | 3.2 | 9.7 | 0.25 | 1.98 | 1.98 | 89 | 1007.2 |
| 20260506005511 | 8 | 84 | 1.6 | 8.0 | 0.25 | 1.98 | 1.98 | 89 | 1007.1 |
| 20260506005112 | 8 | 27 | 4.8 | 9.7 | 0.23 | 1.96 | 1.96 | 89 | 1007.1 |
| 20260506004510 | 8 | 337 | 4.8 | 9.7 | 0.20 | 1.93 | 1.93 | 89 | 1007.3 |
| 20260506004010 | 8 | 11 | 3.2 | 8.0 | 0.18 | 1.91 | 1.91 | 89 | 1007.1 |
| 20260506003510 | 8 | 16 | 3.2 | 8.0 | 0.10 | 1.83 | 1.83 | 89 | 1007.0 |
| 20260506003010 | 8 | 18 | 3.2 | 6.4 | 0.10 | 1.80 | 1.80 | 89 | 1006.8 |
| 20260506002511 | 8 | 34 | 1.6 | 6.4 | 0.05 | 1.75 | 1.75 | 88 | 1006.8 |
| 20260506002009 | 8 | 8 | 3.2 | 6.4 | 0.05 | 1.75 | 1.75 | 88 | 1006.8 |
| 20260506001509 | 8 | 48 | 1.6 | 6.4 | 0.05 | 1.73 | 1.73 | 88 | 1006.9 |
| 20260506001009 | 8 | 41 | 1.6 | 8.0 | 0.08 | 1.73 | 1.73 | 88 | 1006.9 |
| 20260506000508 | 8 | 15 | 3.2 | 8.0 | 0.10 | 1.73 | 1.73 | 88 | 1006.9 |
| 20260506000008 | 8 | 18 | 1.6 | 8.0 | 0.13 | 1.73 | 1.73 | 88 | 1006.8 |
| 20260505235506 | 8 | 41 | 3.2 | 8.0 | 0.18 | 1.73 | 1.73 | 88 | 1006.7 |
| 20260505235006 | 8 | 348 | 1.6 | 8.0 | 0.28 | 1.73 | 1.73 | 88 | 1006.7 |
| 20260505234506 | 8 | 335 | 3.2 | 11.3 | 0.33 | 1.73 | 1.73 | 88 | 1006.7 |
| 20260505234006 | 8 | 44 | 4.8 | 12.9 | 0.33 | 1.73 | 1.73 | 88 | 1006.7 |
| 20260505233506 | 8 | 6 | 6.4 | 12.9 | 0.33 | 1.73 | 1.73 | 88 | 1006.8 |
| 20260505233106 | 8 | 1 | 6.4 | 12.9 | 0.30 | 1.70 | 1.70 | 88 | 1007.1 |
| 20260505232503 | 8 | 325 | 6.4 | 17.7 | 0.36 | 1.70 | 1.70 | 88 | 1007.1 |
| 20260505232003 | 8 | 10 | 9.7 | 17.7 | 0.38 | 1.70 | 1.70 | 88 | 1007.1 |
| 20260505231502 | 8 | 1 | 6.4 | 14.5 | 0.36 | 1.68 | 1.68 | 88 | 1007.2 |
| 20260505231003 | 8 | 356 | 6.4 | 12.9 | 0.36 | 1.65 | 1.65 | 87 | 1006.9 |
| 20260505230603 | 8 | 335 | 3.2 | 12.9 | 0.41 | 1.63 | 1.63 | 87 | 1007.1 |
| 20260505230059 | 8 | 359 | 4.8 | 11.3 | 0.41 | 1.60 | 1.60 | 87 | 1007.2 |
| 20260505225559 | 9 | 337 | 6.4 | 12.9 | 0.38 | 1.57 | 1.55 | 87 | 1007.3 |
| 20260505225057 | 9 | 291 | 6.4 | 12.9 | 0.33 | 1.50 | 1.45 | 87 | 1007.6 |
| 20260505224557 | 9 | 6 | 6.4 | 19.3 | 0.28 | 1.42 | 1.40 | 87 | 1006.9 |
| 20260505224056 | 9 | 336 | 8.0 | 20.9 | 0.30 | 1.42 | 1.40 | 87 | 1006.9 |
| 20260505223554 | 9 | 1 | 4.8 | 20.9 | 0.36 | 1.42 | 1.40 | 87 | 1006.9 |
| 20260505223103 | 10 | 10 | 11.3 | 19.3 | 0.36 | 1.40 | 1.37 | 86 | 1006.9 |
| 20260505222551 | 10 | 23 | 8.0 | 19.3 | 0.36 | 1.37 | 1.35 | 87 | 1007.0 |
| 20260505222051 | 10 | 20 | 6.4 | 14.5 | 0.36 | 1.35 | 1.32 | 86 | 1006.9 |
| 20260505221557 | 10 | 74 | 4.8 | 16.1 | 0.36 | 1.35 | 1.32 | 86 | 1006.8 |
| 20260505221049 | 10 | 333 | 8.0 | 16.1 | 0.41 | 1.32 | 1.30 | 86 | 1006.8 |
| 20260505220547 | 10 | 356 | 8.0 | 16.1 | 0.48 | 1.24 | 1.22 | 86 | 1006.9 |
| 20260505220051 | 10 | 339 | 4.8 | 14.5 | 0.66 | 1.22 | 1.19 | 86 | 1006.8 |
| 20260505215546 | 10 | 34 | 4.8 | 14.5 | 0.66 | 1.19 | 1.17 | 86 | 1006.7 |
| 20260505215046 | 10 | 344 | 4.8 | 11.3 | 0.79 | 1.17 | 1.14 | 86 | 1006.8 |
| 20260505214603 | 10 | 23 | 4.8 | 11.3 | 0.84 | 1.14 | 1.12 | 85 | 1006.6 |
| 20260505214044 | 11 | 345 | 3.2 | 19.3 | 0.81 | 1.12 | 1.09 | 85 | 1006.8 |
| 20260505213544 | 11 | 356 | 8.0 | 20.9 | 0.76 | 1.04 | 1.02 | 85 | 1006.6 |
| 20260505213041 | 11 | 3 | 4.8 | 24.1 | 0.79 | 1.04 | 1.02 | 85 | 1006.6 |
| 20260505212540 | 11 | 4 | 8.0 | 24.1 | 0.79 | 1.02 | 0.99 | 84 | 1006.6 |
| 20260505212039 | 12 | 20 | 11.3 | 22.5 | 0.79 | 0.99 | 0.97 | 84 | 1006.7 |
| 20260505211537 | 13 | 343 | 12.9 | 22.5 | 0.81 | 0.99 | 0.97 | 84 | 1006.6 |
| 20260505211036 | 13 | 356 | 3.2 | 24.1 | 0.71 | 0.89 | 0.86 | 86 | 1006.6 |
| 20260505210534 | 13 | 264 | 4.8 | 24.1 | 0.61 | 0.76 | 0.71 | 85 | 1006.4 |
| 20260505210036 | 13 | 226 | 4.8 | 14.5 | 0.41 | 0.56 | 0.53 | 85 | 1006.3 |
| 20260505205534 | 13 | 240 | 3.2 | 14.5 | 0.36 | 0.51 | 0.48 | 85 | 1006.2 |
| 20260505205033 | 13 | 250 | 4.8 | 14.5 | 0.25 | 0.38 | 0.36 | 85 | 1006.5 |
| 20260505204535 | 13 | 248 | 0.0 | 9.7 | 0.20 | 0.30 | 0.28 | 84 | 1006.2 |
| 20260505204032 | 13 | 41 | 1.6 | 9.7 | 0.23 | 0.30 | 0.28 | 84 | 1006.3 |
| 20260505203532 | 13 | 326 | 0.0 | 8.0 | 0.23 | 0.28 | 0.25 | 84 | 1006.3 |
| 20260505203033 | 14 | 316 | 1.6 | 8.0 | 0.18 | 0.23 | 0.20 | 83 | 1006.4 |
| 20260505202530 | 14 | 214 | 0.0 | 11.3 | 0.18 | 0.23 | 0.20 | 83 | 1006.2 |
| 20260505202102 | 14 | 41 | 3.2 | 11.3 | 0.15 | 0.20 | 0.18 | 83 | 1006.3 |
| 20260505201559 | 14 | 264 | 1.6 | 9.7 | 0.13 | 0.18 | 0.15 | 82 | 1006.4 |
| 20260505201058 | 14 | 231 | 3.2 | 9.7 | 0.10 | 0.15 | 0.13 | 82 | 1006.3 |
| 20260505200557 | 14 | 267 | 4.8 | 20.9 | 0.13 | 0.15 | 0.13 | 81 | 1006.3 |
| 20260505200105 | 15 | 218 | 1.6 | 20.9 | 0.13 | 0.15 | 0.13 | 81 | 1006.3 |
| 20260505195553 | 15 | 119 | 1.6 | 6.4 | 0.13 | 0.15 | 0.13 | 80 | 1006.4 |
| 20260505195052 | 15 | 326 | 1.6 | 9.7 | 0.10 | 0.13 | 0.10 | 79 | 1006.4 |
| 20260505194554 | 15 | 303 | 1.6 | 11.3 | 0.08 | 0.10 | 0.08 | 78 | 1006.4 |
| 20260505194051 | 15 | 239 | 4.8 | 12.9 | 0.05 | 0.08 | 0.05 | 77 | 1006.4 |
| 20260505193550 | 16 | 173 | 3.2 | 12.9 | 0.03 | 0.05 | 0.03 | 76 | 1006.4 |
| 20260505193051 | 16 | 309 | 1.6 | 16.1 | 0.03 | 0.05 | 0.03 | 76 | 1006.5 |
| 20260505192549 | 16 | 254 | 6.4 | 16.1 | 0.03 | 0.05 | 0.03 | 75 | 1006.3 |
| 20260505192051 | 16 | 229 | 1.6 | 16.1 | 0.03 | 0.05 | 0.03 | 75 | 1006.3 |
| 20260505191548 | 16 | 233 | 3.2 | 17.7 | 0.03 | 0.05 | 0.03 | 74 | 1006.4 |
| 20260505191047 | 16 | 221 | 6.4 | 20.9 | 0.03 | 0.05 | 0.03 | 74 | 1006.3 |
| 20260505190545 | 16 | 229 | 8.0 | 20.9 | 0.00 | 0.03 | 0.00 | 74 | 1006.4 |
| 20260505190046 | 16 | 245 | 9.7 | 22.5 | 0.00 | 0.03 | 0.00 | 73 | 1006.4 |
| 20260505185544 | 16 | 250 | 8.0 | 22.5 | 0.00 | 0.03 | 0.00 | 73 | 1006.4 |
| 20260505185044 | 17 | 232 | 6.4 | 25.7 | 0.00 | 0.03 | 0.00 | 73 | 1006.4 |
| 20260505184544 | 17 | 173 | 6.4 | 29.0 | 0.00 | 0.03 | 0.00 | 72 | 1006.4 |
| 20260505184044 | 17 | 226 | 14.5 | 33.8 | 0.00 | 0.03 | 0.00 | 72 | 1006.4 |
| 20260505183543 | 17 | 214 | 14.5 | 33.8 | 0.00 | 0.03 | 0.00 | 72 | 1006.5 |
| 20260505183054 | 17 | 190 | 9.7 | 30.6 | 0.00 | 0.03 | 0.00 | 71 | 1006.5 |
| 20260505182544 | 17 | 259 | 11.3 | 30.6 | 0.00 | 0.03 | 0.00 | 72 | 1006.5 |
| 20260505182042 | 17 | 208 | 9.7 | 30.6 | 0.00 | 0.03 | 0.00 | 71 | 1006.5 |
| 20260505181543 | 17 | 235 | 11.3 | 30.6 | 0.00 | 0.03 | 0.00 | 71 | 1006.5 |
| 20260505181044 | 17 | 323 | 4.8 | 29.0 | 0.00 | 0.03 | 0.00 | 71 | 1006.4 |
| 20260505180540 | 17 | 248 | 14.5 | 29.0 | 0.00 | 0.03 | 0.00 | 71 | 1006.4 |
| 20260505180043 | 17 | 245 | 6.4 | 22.5 | 0.00 | 0.03 | 0.00 | 71 | 1006.4 |
| 20260505175539 | 17 | 241 | 4.8 | 27.4 | 0.00 | 0.03 | 0.00 | 71 | 1006.3 |
| 20260505175038 | 17 | 216 | 14.5 | 29.0 | 0.00 | 0.03 | 0.00 | 71 | 1006.3 |
| 20260505174545 | 17 | 326 | 9.7 | 35.4 | 0.00 | 0.03 | 0.00 | 70 | 1006.3 |
| 20260505174041 | 17 | 264 | 9.7 | 37.0 | 0.00 | 0.03 | 0.00 | 70 | 1006.2 |
| 20260505173538 | 17 | 267 | 14.5 | 37.0 | 0.00 | 0.03 | 0.00 | 70 | 1006.2 |
| 20260505173037 | 17 | 281 | 6.4 | 40.2 | 0.00 | 0.03 | 0.00 | 69 | 1006.1 |
| 20260505172540 | 17 | 255 | 19.3 | 40.2 | 0.00 | 0.03 | 0.00 | 70 | 1006.2 |
| 20260505172036 | 17 | 196 | 14.5 | 33.8 | 0.00 | 0.03 | 0.00 | 69 | 1006.2 |
| 20260505171538 | 17 | 317 | 11.3 | 33.8 | 0.00 | 0.03 | 0.00 | 69 | 1006.1 |
| 20260505171035 | 17 | 211 | 11.3 | 43.5 | 0.00 | 0.03 | 0.00 | 68 | 1006.2 |
| 20260505170534 | 17 | 227 | 17.7 | 43.5 | 0.00 | 0.03 | 0.00 | 68 | 1006.2 |
| 20260505170034 | 17 | 243 | 11.3 | 38.6 | 0.00 | 0.03 | 0.00 | 68 | 1006.1 |
| 20260505165532 | 18 | 259 | 6.4 | 38.6 | 0.00 | 0.03 | 0.00 | 67 | 1006.2 |
| 20260505165032 | 18 | 253 | 9.7 | 29.0 | 0.00 | 0.03 | 0.00 | 67 | 1006.1 |
| 20260505164535 | 18 | 236 | 14.5 | 35.4 | 0.00 | 0.03 | 0.00 | 67 | 1006.1 |
| 20260505164032 | 18 | 156 | 20.9 | 43.5 | 0.00 | 0.03 | 0.00 | 66 | 1006.0 |
| 20260505163530 | 18 | 259 | 20.9 | 43.5 | 0.00 | 0.03 | 0.00 | 66 | 1006.1 |
| 20260505163032 | 18 | 257 | 22.5 | 43.5 | 0.00 | 0.03 | 0.00 | 66 | 1006.1 |
| 20260505162529 | 19 | 250 | 12.9 | 40.2 | 0.00 | 0.03 | 0.00 | 65 | 1006.1 |
| 20260505162028 | 19 | 245 | 19.3 | 40.2 | 0.00 | 0.03 | 0.00 | 65 | 1005.9 |
| 20260505161528 | 19 | 230 | 19.3 | 40.2 | 0.00 | 0.03 | 0.00 | 64 | 1005.9 |
| 20260505161027 | 20 | 254 | 17.7 | 40.2 | 0.00 | 0.03 | 0.00 | 64 | 1005.9 |
| 20260505160527 | 20 | 248 | 16.1 | 40.2 | 0.00 | 0.03 | 0.00 | 63 | 1005.8 |
| 20260505153023 | 20 | 154 | 19.3 | 45.1 | 0.00 | 0.03 | 0.00 | 63 | 1005.0 |
| 20260505152519 | 20 | 236 | 19.3 | 45.1 | 0.00 | 0.03 | 0.00 | 64 | 1004.8 |
| 20260505152020 | 20 | 227 | 22.5 | 41.8 | 0.00 | 0.03 | 0.00 | 63 | 1004.7 |
| 20260505151517 | 19 | 210 | 20.9 | 41.8 | 0.00 | 0.03 | 0.00 | 64 | 1004.8 |
| 20260505151016 | 19 | 213 | 19.3 | 46.7 | 0.00 | 0.03 | 0.00 | 67 | 1005.0 |
| 20260505150520 | 19 | 207 | 19.3 | 46.7 | 0.00 | 0.03 | 0.00 | 66 | 1005.0 |
| 20260505140504 | 18 | 207 | 29.0 | 53.1 | 0.00 | 0.03 | 0.00 | 69 | 1004.6 |
| 20260505124654 | 15 | 215 | 12.9 | 40.2 | 0.00 | 0.03 | 0.00 | 74 | 1005.0 |